Previsão horária em Plowce

Hoje, 2 Março, Terça-feira

Tempo Temperatura Precipitação Vento Pressão Humidade
00:00 -1°C° 0 mm 0 m/s 746 mmHg 95%
01:00 -1°C° 0 mm 0 m/s 746 mmHg 96%
02:00 0°C° 0 mm 1 m/s 746 mmHg 95%
03:00 0°C° 0 mm 1 m/s 745 mmHg 95%
04:00 0°C° 0 mm 1 m/s 745 mmHg 95%
05:00 0°C° 0 mm 1 m/s 745 mmHg 93%
06:00 +1°C° 0 mm 1 m/s 745 mmHg 91%
07:00 +1°C° 0 mm 1 m/s 745 mmHg 89%
08:00 +3°C° 0 mm 1 m/s 745 mmHg 82%
09:00 +4°C° 0 mm 2 m/s 745 mmHg 74%
10:00 +6°C° 0 mm 2 m/s 745 mmHg 67%
11:00 +7°C° 0 mm 2 m/s 745 mmHg 65%
12:00 +8°C° 0 mm 3 m/s 744 mmHg 62%
13:00 +9°C° 0 mm 3 m/s 744 mmHg 60%
14:00 +8°C° 0 mm 3 m/s 744 mmHg 64%
15:00 +8°C° 0 mm 3 m/s 744 mmHg 67%
16:00 +7°C° 0 mm 3 m/s 743 mmHg 71%
17:00 +6°C° 0 mm 2 m/s 743 mmHg 74%
18:00 +5°C° 0 mm 2 m/s 743 mmHg 77%
19:00 +4°C° 0 mm 1 m/s 744 mmHg 80%
20:00 +4°C° 0 mm 1 m/s 744 mmHg 81%
21:00 +3°C° 0 mm 1 m/s 744 mmHg 82%
22:00 +3°C° 0 mm 1 m/s 744 mmHg 83%
23:00 +3°C° 0 mm 1 m/s 744 mmHg 84%

Amanhã, 3 Março, Quarta-feira

Tempo Temperatura Precipitação Vento Pressão Humidade
00:00 +3°C° 0 mm 1 m/s 744 mmHg 86%
01:00 +2°C° 0 mm 1 m/s 744 mmHg 87%
02:00 +2°C° 0 mm 1 m/s 744 mmHg 88%
03:00 +2°C° 0 mm 1 m/s 743 mmHg 88%
04:00 +2°C° 0 mm 1 m/s 743 mmHg 89%
05:00 +2°C° 0 mm 1 m/s 743 mmHg 88%
06:00 +2°C° 0 mm 1 m/s 743 mmHg 88%
07:00 +3°C° 0 mm 1 m/s 744 mmHg 87%
08:00 +5°C° 0 mm 1 m/s 743 mmHg 81%
09:00 +7°C° 0 mm 1 m/s 743 mmHg 74%
10:00 +9°C° 0 mm 1 m/s 743 mmHg 67%
11:00 +10°C° 0 mm 1 m/s 743 mmHg 65%
12:00 +9°C° 0 mm 2 m/s 742 mmHg 63%
13:00 +10°C° 0 mm 2 m/s 742 mmHg 60%
14:00 +9°C° 0 mm 2 m/s 741 mmHg 65%
15:00 +9°C° 0 mm 2 m/s 741 mmHg 70%
16:00 +8°C° 0 mm 2 m/s 740 mmHg 75%
17:00 +7°C° 0 mm 2 m/s 740 mmHg 79%
18:00 +4°C° 0 mm 3 m/s 740 mmHg 84%
19:00 +3°C° 0 mm 3 m/s 740 mmHg 89%
20:00 +3°C° 0 mm 3 m/s 739 mmHg 90%
21:00 +3°C° 0 mm 3 m/s 739 mmHg 90%
22:00 +3°C° 0 mm 3 m/s 738 mmHg 90%
23:00 +3°C° 0 mm 4 m/s 738 mmHg 90%

Depois de amanhã, 4 Março, Quinta-feira

Tempo Temperatura Precipitação Vento Pressão Humidade
00:00 +3°C° 0 mm 4 m/s 737 mmHg 90%
01:00 +3°C° 0 mm 4 m/s 737 mmHg 89%
02:00 +1°C° 0 mm 4 m/s 736 mmHg 89%
03:00 +1°C° 0 mm 4 m/s 736 mmHg 89%
04:00 +1°C° 0 mm 4 m/s 735 mmHg 89%
05:00 +1°C° 0 mm 4 m/s 735 mmHg 89%
06:00 +1°C° 0 mm 4 m/s 734 mmHg 89%
07:00 +1°C° 0 mm 4 m/s 734 mmHg 89%
08:00 +3°C° 0 mm 4 m/s 734 mmHg 85%
09:00 +3°C° 0 mm 5 m/s 733 mmHg 81%
10:00 +5°C° 0 mm 5 m/s 733 mmHg 77%
11:00 +6°C° 0 mm 5 m/s 732 mmHg 75%
12:00 +7°C° 0 mm 5 m/s 732 mmHg 73%
13:00 +7°C° 0 mm 5 m/s 732 mmHg 71%
14:00 +7°C° 0 mm 5 m/s 731 mmHg 73%
15:00 +7°C° 0 mm 4 m/s 730 mmHg 75%
16:00 +6°C° 0 mm 4 m/s 730 mmHg 77%
17:00 +6°C° 0 mm 4 m/s 730 mmHg 80%
18:00 +5°C° 0 mm 4 m/s 730 mmHg 83%
19:00 +4°C° 0 mm 3 m/s 730 mmHg 86%
20:00 +4°C° 0 mm 3 m/s 729 mmHg 85%
21:00 +5°C° 0 mm 3 m/s 729 mmHg 85%
22:00 +5°C° 0 mm 3 m/s 729 mmHg 85%
23:00 +5°C° 0.1 mm 3 m/s 729 mmHg 87%

5 Março, Sexta-feira

Tempo Temperatura Precipitação Vento Pressão Humidade
00:00 +4°C° 0.1 mm 3 m/s 729 mmHg 89%
01:00 +4°C° 0.1 mm 3 m/s 728 mmHg 91%
02:00 +5°C° 0.8 mm 2 m/s 728 mmHg 93%
03:00 +4°C° 0.8 mm 2 m/s 728 mmHg 95%
04:00 +3°C° 0.8 mm 2 m/s 728 mmHg 97%
05:00 +3°C° 0.5 mm 2 m/s 728 mmHg 97%
06:00 +3°C° 0.5 mm 2 m/s 728 mmHg 97%
07:00 +2°C° 0.5 mm 2 m/s 728 mmHg 97%
08:00 +2°C° 0.4 mm 2 m/s 729 mmHg 97%
09:00 +2°C° 0.4 mm 2 m/s 729 mmHg 96%
10:00 +1°C° 0.4 mm 2 m/s 729 mmHg 96%
11:00 +1°C° 0.6 mm 2 m/s 729 mmHg 96%
12:00 0°C° 0.6 mm 3 m/s 730 mmHg 96%
13:00 -1°C° 0.6 mm 4 m/s 730 mmHg 96%
14:00 -2°C° 1 mm 4 m/s 730 mmHg 95%
15:00 -2°C° 1 mm 4 m/s 731 mmHg 94%
16:00 -2°C° 1 mm 4 m/s 731 mmHg 93%
17:00 -3°C° 0.2 mm 4 m/s 732 mmHg 92%
18:00 -2°C° 0.2 mm 3 m/s 733 mmHg 90%
19:00 -4°C° 0.2 mm 3 m/s 734 mmHg 89%
20:00 -3°C° 0.1 mm 2 m/s 734 mmHg 89%
21:00 -3°C° 0.1 mm 2 m/s 735 mmHg 88%
22:00 -4°C° 0.1 mm 2 m/s 735 mmHg 88%
23:00 -4°C° 0 mm 2 m/s 736 mmHg 86%

6 Março, Sábado

Tempo Temperatura Precipitação Vento Pressão Humidade
00:00 -5°C° 0 mm 2 m/s 736 mmHg 85%
01:00 -4°C° 0 mm 1 m/s 736 mmHg 84%
02:00 -4°C° 0 mm 1 m/s 737 mmHg 83%
03:00 -4°C° 0 mm 1 m/s 737 mmHg 82%
04:00 -4°C° 0 mm 1 m/s 737 mmHg 81%
05:00 -4°C° 0 mm 1 m/s 738 mmHg 80%
06:00 -4°C° 0 mm 1 m/s 738 mmHg 79%
07:00 -3°C° 0 mm 1 m/s 739 mmHg 78%
08:00 -4°C° 0.1 mm 2 m/s 739 mmHg 78%
09:00 -4°C° 0.1 mm 3 m/s 739 mmHg 78%
10:00 -3°C° 0.1 mm 4 m/s 740 mmHg 78%
11:00 -2°C° 0.2 mm 4 m/s 740 mmHg 72%
12:00 -2°C° 0.2 mm 4 m/s 740 mmHg 66%
13:00 -2°C° 0.2 mm 5 m/s 740 mmHg 60%
14:00 -2°C° 0.1 mm 4 m/s 740 mmHg 61%
15:00 -2°C° 0.1 mm 4 m/s 740 mmHg 61%
16:00 -2°C° 0.1 mm 3 m/s 741 mmHg 62%
17:00 -4°C° 0 mm 3 m/s 741 mmHg 66%
18:00 -4°C° 0 mm 2 m/s 741 mmHg 70%
19:00 -3°C° 0 mm 1 m/s 741 mmHg 74%
20:00 -3°C° 0 mm 1 m/s 741 mmHg 76%
21:00 -3°C° 0 mm 1 m/s 742 mmHg 77%
22:00 -3°C° 0 mm 1 m/s 742 mmHg 78%
23:00 -5°C° 0 mm 2 m/s 741 mmHg 78%

7 Março, Domingo

Tempo Temperatura Precipitação Vento Pressão Humidade
00:00 -5°C° 0 mm 2 m/s 741 mmHg 77%
01:00 -5°C° 0 mm 2 m/s 741 mmHg 76%
02:00 -6°C° 0 mm 3 m/s 740 mmHg 76%
03:00 -6°C° 0 mm 3 m/s 740 mmHg 75%
04:00 -6°C° 0 mm 3 m/s 740 mmHg 74%
05:00 -7°C° 0 mm 4 m/s 739 mmHg 71%
06:00 -5°C° 0 mm 4 m/s 739 mmHg 69%
07:00 -5°C° 0 mm 4 m/s 739 mmHg 66%
08:00 -5°C° 0 mm 5 m/s 738 mmHg 62%
09:00 -4°C° 0 mm 5 m/s 738 mmHg 58%
10:00 -1°C° 0 mm 5 m/s 738 mmHg 55%
11:00 -2°C° 0 mm 6 m/s 737 mmHg 54%
12:00 -1°C° 0 mm 6 m/s 736 mmHg 54%
13:00 +1°C° 0 mm 6 m/s 736 mmHg 54%
14:00 0°C° 0 mm 5 m/s 735 mmHg 56%
15:00 0°C° 0 mm 5 m/s 734 mmHg 58%
16:00 0°C° 0 mm 4 m/s 734 mmHg 60%
17:00 -1°C° 0 mm 4 m/s 733 mmHg 64%
18:00 -2°C° 0 mm 4 m/s 733 mmHg 68%
19:00 -3°C° 0 mm 4 m/s 733 mmHg 71%
20:00 -3°C° 0 mm 4 m/s 733 mmHg 72%
21:00 -3°C° 0 mm 4 m/s 732 mmHg 72%
22:00 -3°C° 0 mm 4 m/s 732 mmHg 72%
23:00 -3°C° 0 mm 4 m/s 732 mmHg 72%
Mostrar mais

Necessitamos do seu Consentimento

A Meteoprog e os seus Fornecedores de Serviços podem armazenar e aceder a dados pessoais como cookies, identificadores do dispositivo ou outras tecnologias semelhantes existentes no seu dispositivo e processar estes dados para personalizar conteúdos e anúncios, assim como funcionalidades nas redes sociais e análise de tráfego.

  • Armazenar e/ou aceder a informações no seu dispositivo

    Os cookies, identificadores do dispositivo ou outras informações podem ser armazenados ou acedidos no seu dispositivo, para os fins acima indicados.

  • Anúncios e conteúdos personalizados, medição de anúncios e conteúdos, dados sobre o público-alvo e desenvolvimento de produtos

    Os anúncios e os conteúdos podem ser personalizados com base num perfil. Podem ser adicionados dados adicionais para uma maior personalização dos anúncios e dos conteúdos. A eficácia dos anúncios e dos conteúdos pode ser medida. Podem ser obtidas informações sobre o público que visualizou os anúncios e os conteúdos. Estes dados podem ser usados para desenvolver ou melhorar sistemas, softwares ou a experiência do utilizador.

Ao clicar em "Eu concordo”, permitirá o uso de cookies, identificadores do dispositivo e web beacons mencionados ou outras tecnologias semelhantes. As configurações do navegador do seu dispositivo podem ser alteradas.

Para certos fins, podem ser invocados interesses legítimos ao invés de consentimento. Pode ler mais informação sobre este assunto na nossa Política de Privacidade e Cookies.